| time (UTC) | temp F | wind direction | speed knots | gust knots | rain 1hr in | rain 24hr in | rain mn in | humidity % | barometer mb |
| 20260505140253 | 50 | 0 | 0.0 | 4.3 | 0.00 | 0.04 | 0.02 | 1015.3 | |
| 20260505130253 | 50 | 168 | 0.0 | 8.7 | 0.00 | 0.05 | 0.02 | 1014.8 | |
| 20260505124752 | 50 | 197 | 0.9 | 7.8 | 0.00 | 0.05 | 0.02 | 1014.8 | |
| 20260505123755 | 50 | 134 | 1.7 | 6.1 | 0.00 | 0.05 | 0.02 | 1014.7 | |
| 20260505123752 | 50 | 134 | 1.7 | 6.1 | 0.00 | 0.05 | 0.02 | 1014.7 | |
| 20260505123252 | 50 | 197 | 0.9 | 6.1 | 0.00 | 0.05 | 0.02 | 1014.7 | |
| 20260505122752 | 50 | 201 | 0.0 | 5.2 | 0.00 | 0.05 | 0.02 | 1014.7 | |
| 20260505122253 | 50 | 205 | 0.0 | 5.2 | 0.00 | 0.05 | 0.02 | 1014.7 | |
| 20260505121751 | 50 | 189 | 0.9 | 5.2 | 0.00 | 0.05 | 0.02 | 1014.7 | |
| 20260505121252 | 50 | 184 | 0.0 | 7.0 | 0.00 | 0.05 | 0.02 | 1014.7 | |
| 20260505120751 | 50 | 128 | 0.0 | 7.0 | 0.00 | 0.06 | 0.02 | 1014.7 | |
| 20260505115752 | 50 | 191 | 2.6 | 7.0 | 0.00 | 0.06 | 0.02 | 1014.6 | |
| 20260505115252 | 50 | 180 | 0.0 | 7.8 | 0.00 | 0.06 | 0.02 | 1014.6 | |
| 20260505114751 | 50 | 205 | 1.7 | 7.8 | 0.00 | 0.06 | 0.02 | 1014.6 | |
| 20260505114251 | 50 | 232 | 1.7 | 7.8 | 0.00 | 0.06 | 0.02 | 1014.5 | |
| 20260505113756 | 50 | 175 | 1.7 | 7.0 | 0.00 | 0.06 | 0.02 | 1014.6 | |
| 20260505113751 | 50 | 175 | 1.7 | 7.0 | 0.00 | 0.06 | 0.02 | 1014.6 | |
| 20260505112751 | 50 | 221 | 2.6 | 11.3 | 0.00 | 0.06 | 0.02 | 1014.6 | |
| 20260505112252 | 50 | 204 | 0.9 | 11.3 | 0.00 | 0.06 | 0.02 | 1014.6 | |
| 20260505111751 | 50 | 222 | 0.9 | 8.7 | 0.00 | 0.06 | 0.02 | 1014.5 | |
| 20260505110752 | 50 | 228 | 3.5 | 12.2 | 0.01 | 0.08 | 0.02 | 1014.6 | |
| 20260505110253 | 50 | 228 | 5.2 | 12.2 | 0.01 | 0.08 | 0.02 | 1014.6 | |
| 20260505101752 | 50 | 172 | 0.9 | 9.6 | 0.01 | 0.08 | 0.02 | 1014.5 | |
| 20260505101251 | 50 | 218 | 5.2 | 9.6 | 0.01 | 0.08 | 0.02 | 1014.3 | |
| 20260505100751 | 50 | 210 | 0.0 | 5.2 | 0.00 | 0.08 | 0.02 | 1014.4 | |
| 20260505095751 | 50 | 142 | 0.0 | 8.7 | 0.00 | 0.08 | 0.01 | 1014.5 | |
| 20260505095254 | 50 | 124 | 0.0 | 8.7 | 0.00 | 0.08 | 0.01 | 1014.5 | |
| 20260505094751 | 50 | 187 | 1.7 | 8.7 | 0.00 | 0.08 | 0.01 | 1014.4 | |
| 20260505094251 | 50 | 165 | 4.3 | 11.3 | 0.00 | 0.08 | 0.01 | 1014.3 | |
| 20260505093751 | 50 | 184 | 0.9 | 11.3 | 0.00 | 0.08 | 0.01 | 1014.2 | |
| 20260505090751 | 50 | 190 | 4.3 | 12.2 | 0.00 | 0.08 | 0.01 | 1014.1 | |
| 20260505085752 | 50 | 187 | 3.5 | 11.3 | 0.00 | 0.08 | 0.01 | 1014.1 | |
| 20260505084751 | 50 | 184 | 3.5 | 9.6 | 0.00 | 0.08 | 0.01 | 1014.1 | |
| 20260505083751 | 50 | 203 | 5.2 | 11.3 | 0.00 | 0.08 | 0.01 | 1014.1 | |
| 20260505082751 | 50 | 182 | 4.3 | 11.3 | 0.00 | 0.08 | 0.01 | 1014.2 | |
| 20260505081751 | 50 | 226 | 3.5 | 15.6 | 0.01 | 0.08 | 0.01 | 1014.1 | |
| 20260505080754 | 50 | 196 | 5.2 | 15.6 | 0.01 | 0.08 | 0.01 | 1014.2 | |
| 20260505080751 | 50 | 196 | 5.2 | 15.6 | 0.01 | 0.08 | 0.01 | 1014.2 | |
| 20260505080252 | 49 | 215 | 5.2 | 15.6 | 0.01 | 0.08 | 0.01 | 1014.2 | |
| 20260505075751 | 49 | 191 | 5.2 | 15.6 | 0.01 | 0.08 | 0.01 | 1014.2 | |
| 20260505075252 | 49 | 200 | 7.0 | 15.6 | 0.01 | 0.08 | 0.01 | 1014.2 | |
| 20260505074251 | 50 | 148 | 6.1 | 13.9 | 0.01 | 0.08 | 0.01 | 1014.3 | |
| 20260505073751 | 49 | 226 | 7.8 | 13.9 | 0.01 | 0.08 | 0.01 | 1014.2 | |
| 20260505073251 | 49 | 189 | 4.3 | 10.4 | 0.01 | 0.08 | 0.01 | 1014.2 | |
| 20260505072751 | 50 | 211 | 5.2 | 10.4 | 0.01 | 0.08 | 0.01 | 1014.2 | |
| 20260505072252 | 50 | 204 | 4.3 | 9.6 | 0.01 | 0.08 | 0.01 | 1014.2 | |
| 20260505071750 | 50 | 190 | 3.5 | 14.8 | 0.00 | 0.08 | 0.01 | 1014.2 | |
| 20260505070750 | 50 | 210 | 3.5 | 14.8 | 0.00 | 0.09 | 0.00 | 1014.2 | |
| 20260505070252 | 50 | 200 | 2.6 | 9.6 | 0.00 | 0.09 | 0.08 | 1014.2 | |
| 20260505065750 | 50 | 215 | 3.5 | 9.6 | 0.00 | 0.09 | 0.08 | 1014.3 | |
| 20260505064750 | 51 | 190 | 1.7 | 9.6 | 0.00 | 0.09 | 0.08 | 1014.4 | |
| 20260505064252 | 50 | 193 | 5.2 | 9.6 | 0.00 | 0.09 | 0.08 | 1014.4 | |
| 20260505063750 | 50 | 260 | 4.3 | 13.9 | 0.00 | 0.09 | 0.08 | 1014.4 | |
| 20260505062750 | 50 | 207 | 3.5 | 13.9 | 0.00 | 0.09 | 0.08 | 1014.3 | |
| 20260505061750 | 50 | 207 | 3.5 | 10.4 | 0.00 | 0.09 | 0.08 | 1014.2 | |
| 20260505060751 | 50 | 183 | 3.5 | 8.7 | 0.00 | 0.09 | 0.08 | 1014.3 | |
| 20260505055750 | 50 | 197 | 1.7 | 13.9 | 0.00 | 0.09 | 0.08 | 1014.3 | |
| 20260505055252 | 50 | 151 | 6.1 | 13.9 | 0.00 | 0.09 | 0.08 | 1014.3 | |
| 20260505054750 | 50 | 191 | 5.2 | 10.4 | 0.00 | 0.09 | 0.08 | 1014.4 | |
| 20260505054250 | 50 | 224 | 2.6 | 11.3 | 0.00 | 0.09 | 0.08 | 1014.5 | |
| 20260505053750 | 50 | 186 | 0.0 | 11.3 | 0.00 | 0.09 | 0.08 | 1014.5 | |
| 20260505053250 | 50 | 210 | 5.2 | 11.3 | 0.00 | 0.09 | 0.08 | 1014.4 | |
| 20260505052750 | 50 | 186 | 5.2 | 11.3 | 0.00 | 0.09 | 0.08 | 1014.5 | |
| 20260505052253 | 50 | 205 | 4.3 | 12.2 | 0.00 | 0.09 | 0.08 | 1014.3 | |
| 20260505051750 | 50 | 170 | 5.2 | 12.2 | 0.00 | 0.09 | 0.08 | 1014.3 | |
| 20260505051250 | 50 | 231 | 4.3 | 12.2 | 0.00 | 0.09 | 0.08 | 1014.4 | |
| 20260505050750 | 50 | 175 | 6.1 | 11.3 | 0.00 | 0.10 | 0.08 | 1014.3 | |
| 20260505050250 | 50 | 215 | 5.2 | 9.6 | 0.00 | 0.10 | 0.08 | 1014.3 | |
| 20260505041750 | 50 | 205 | 4.3 | 11.3 | 0.00 | 0.10 | 0.08 | 1013.9 | |
| 20260505041250 | 50 | 212 | 3.5 | 11.3 | 0.00 | 0.10 | 0.08 | 1013.8 | |
| 20260505040750 | 49 | 180 | 6.1 | 13.0 | 0.00 | 0.13 | 0.08 | 1013.6 | |
| 20260505040250 | 50 | 200 | 5.2 | 13.0 | 0.00 | 0.13 | 0.08 | 1013.6 | |
| 20260505035750 | 50 | 194 | 6.1 | 13.0 | 0.00 | 0.13 | 0.08 | 1013.5 | |
| 20260505035258 | 50 | 249 | 6.1 | 13.0 | 0.00 | 0.13 | 0.08 | 1013.5 | |
| 20260505035250 | 50 | 249 | 6.1 | 13.0 | 0.00 | 0.13 | 0.08 | 1013.5 | |
| 20260505034750 | 50 | 219 | 5.2 | 15.6 | 0.00 | 0.13 | 0.08 | 1013.5 | |
| 20260505034250 | 49 | 182 | 6.1 | 15.6 | 0.00 | 0.13 | 0.08 | 1013.5 | |
| 20260505033750 | 50 | 191 | 7.0 | 15.6 | 0.00 | 0.13 | 0.08 | 1013.5 | |
| 20260505033250 | 49 | 204 | 7.0 | 13.0 | 0.00 | 0.13 | 0.08 | 1013.4 | |
| 20260505032750 | 50 | 187 | 6.1 | 14.8 | 0.00 | 0.13 | 0.08 | 1013.5 | |
| 20260505032255 | 50 | 189 | 7.8 | 14.8 | 0.00 | 0.13 | 0.08 | 1013.5 | |
| 20260505032250 | 50 | 189 | 7.8 | 14.8 | 0.00 | 0.13 | 0.08 | 1013.5 | |
| 20260505031750 | 50 | 207 | 7.0 | 14.8 | 0.00 | 0.13 | 0.08 | 1013.4 | |
| 20260505031250 | 50 | 187 | 5.2 | 13.0 | 0.00 | 0.13 | 0.08 | 1013.4 | |
| 20260505030750 | 50 | 170 | 5.2 | 13.0 | 0.00 | 0.16 | 0.08 | 1013.3 | |
| 20260505030250 | 50 | 201 | 7.8 | 12.2 | 0.00 | 0.16 | 0.08 | 1013.2 | |
| 20260505025750 | 50 | 225 | 7.0 | 14.8 | 0.00 | 0.16 | 0.08 | 1013.2 | |
| 20260505024750 | 50 | 214 | 7.0 | 14.8 | 0.00 | 0.16 | 0.08 | 1013.1 | |
| 20260505024250 | 50 | 179 | 7.8 | 16.5 | 0.00 | 0.16 | 0.08 | 1013.1 | |
| 20260505023752 | 50 | 218 | 7.0 | 16.5 | 0.00 | 0.16 | 0.08 | 1013.2 | |
| 20260505023251 | 50 | 240 | 6.1 | 16.5 | 0.00 | 0.16 | 0.08 | 1013.2 | |
| 20260505022749 | 50 | 225 | 7.8 | 16.5 | 0.00 | 0.16 | 0.08 | 1013.1 | |
| 20260505022250 | 50 | 183 | 7.8 | 17.4 | 0.00 | 0.16 | 0.08 | 1013.1 | |
| 20260505021749 | 50 | 187 | 7.8 | 17.4 | 0.00 | 0.16 | 0.08 | 1013.0 | |
| 20260505021249 | 50 | 212 | 8.7 | 17.4 | 0.00 | 0.16 | 0.08 | 1013.0 | |
| 20260505020750 | 50 | 217 | 7.8 | 17.4 | 0.00 | 0.16 | 0.08 | 1012.9 | |
| 20260505020250 | 51 | 200 | 6.1 | 14.8 | 0.00 | 0.16 | 0.08 | 1013.0 | |
| 20260505015749 | 50 | 173 | 8.7 | 14.8 | 0.00 | 0.16 | 0.08 | 1013.0 | |
| 20260505015250 | 50 | 193 | 7.8 | 18.2 | 0.00 | 0.16 | 0.08 | 1013.0 | |
| 20260505014749 | 50 | 217 | 7.8 | 18.2 | 0.00 | 0.16 | 0.08 | 1013.0 | |
| 20260505014249 | 50 | 200 | 9.6 | 18.2 | 0.00 | 0.16 | 0.08 | 1012.9 | |
| 20260505013749 | 50 | 187 | 9.6 | 18.2 | 0.00 | 0.16 | 0.08 | 1013.0 | |
| 20260505013249 | 50 | 205 | 9.6 | 18.2 | 0.00 | 0.16 | 0.08 | 1013.1 | |
| 20260505012749 | 50 | 193 | 8.7 | 20.0 | 0.00 | 0.16 | 0.08 | 1013.1 | |
| 20260505012250 | 50 | 191 | 8.7 | 20.0 | 0.00 | 0.16 | 0.08 | 1013.2 | |
| 20260505011749 | 50 | 232 | 13.0 | 20.0 | 0.00 | 0.16 | 0.08 | 1013.3 | |
| 20260505011249 | 51 | 189 | 10.4 | 17.4 | 0.00 | 0.16 | 0.08 | 1013.4 | |
| 20260505010749 | 50 | 231 | 10.4 | 22.6 | 0.00 | 0.16 | 0.08 | 1013.4 | |
| 20260505010249 | 51 | 207 | 7.8 | 22.6 | 0.00 | 0.16 | 0.08 | 1013.6 | |
| 20260505005250 | 51 | 212 | 12.2 | 19.1 | 0.00 | 0.16 | 0.08 | 1013.5 | |
| 20260505004749 | 51 | 219 | 9.6 | 19.1 | 0.00 | 0.16 | 0.08 | 1013.4 | |
| 20260505004249 | 52 | 208 | 11.3 | 19.1 | 0.00 | 0.16 | 0.08 | 1013.5 | |
| 20260505003749 | 52 | 214 | 10.4 | 19.1 | 0.00 | 0.16 | 0.08 | 1013.6 | |
| 20260505003249 | 51 | 214 | 9.6 | 18.2 | 0.00 | 0.16 | 0.08 | 1013.6 | |
| 20260505002749 | 51 | 187 | 9.6 | 17.4 | 0.00 | 0.16 | 0.08 | 1013.5 | |
| 20260505002251 | 52 | 221 | 8.7 | 20.0 | 0.00 | 0.16 | 0.08 | 1013.6 | |
| 20260505001749 | 52 | 149 | 10.4 | 20.0 | 0.00 | 0.16 | 0.08 | 1013.6 | |
| 20260505000749 | 51 | 214 | 10.4 | 20.9 | 0.00 | 0.16 | 0.08 | 1013.6 | |
| 20260505000249 | 51 | 212 | 9.6 | 20.9 | 0.00 | 0.16 | 0.08 | 1013.6 | |
| 20260504235749 | 52 | 186 | 8.7 | 20.9 | 0.00 | 0.16 | 0.08 | 1013.6 | |
| 20260504235250 | 52 | 208 | 8.7 | 20.9 | 0.00 | 0.16 | 0.08 | 1013.6 | |
| 20260504234750 | 52 | 193 | 10.4 | 20.9 | 0.00 | 0.16 | 0.08 | 1013.6 | |
| 20260504233749 | 52 | 184 | 8.7 | 20.9 | 0.00 | 0.16 | 0.08 | 1013.6 | |
| 20260504233249 | 52 | 228 | 11.3 | 20.9 | 0.00 | 0.16 | 0.08 | 1013.6 | |
| 20260504232749 | 52 | 183 | 10.4 | 20.9 | 0.00 | 0.16 | 0.08 | 1013.6 | |
| 20260504232249 | 52 | 191 | 9.6 | 20.0 | 0.00 | 0.16 | 0.08 | 1013.6 | |
| 20260504231749 | 52 | 226 | 12.2 | 20.0 | 0.00 | 0.16 | 0.08 | 1013.8 | |
| 20260504230749 | 53 | 229 | 10.4 | 16.5 | 0.00 | 0.16 | 0.08 | 1013.9 | |
| 20260504230249 | 53 | 196 | 9.6 | 15.6 | 0.00 | 0.16 | 0.08 | 1013.9 | |
| 20260504225749 | 53 | 207 | 8.7 | 19.1 | 0.00 | 0.16 | 0.08 | 1014.0 | |
| 20260504224749 | 53 | 177 | 9.6 | 19.1 | 0.00 | 0.16 | 0.08 | 1014.1 | |
| 20260504224249 | 53 | 203 | 9.6 | 16.5 | 0.00 | 0.16 | 0.08 | 1014.1 | |
| 20260504223749 | 53 | 203 | 8.7 | 20.0 | 0.00 | 0.16 | 0.08 | 1014.1 | |
| 20260504223249 | 54 | 180 | 8.7 | 20.0 | 0.00 | 0.16 | 0.08 | 1014.2 | |
| 20260504222749 | 53 | 197 | 8.7 | 20.0 | 0.00 | 0.16 | 0.08 | 1014.3 | |
| 20260504222249 | 52 | 189 | 9.6 | 19.1 | 0.00 | 0.16 | 0.08 | 1014.4 | |
| 20260504221749 | 52 | 219 | 10.4 | 19.1 | 0.00 | 0.16 | 0.08 | 1014.4 | |
| 20260504221249 | 52 | 208 | 7.0 | 18.2 | 0.00 | 0.16 | 0.08 | 1014.4 | |
| 20260504220749 | 52 | 215 | 5.2 | 18.2 | 0.00 | 0.16 | 0.08 | 1014.5 | |
| 20260504215249 | 52 | 217 | 8.7 | 17.4 | 0.00 | 0.16 | 0.08 | 1014.5 | |
| 20260504214749 | 53 | 197 | 7.0 | 19.1 | 0.00 | 0.16 | 0.08 | 1014.6 | |
| 20260504214249 | 53 | 210 | 10.4 | 19.1 | 0.00 | 0.16 | 0.08 | 1014.6 | |
| 20260504213748 | 52 | 182 | 7.8 | 19.1 | 0.00 | 0.16 | 0.08 | 1014.6 | |
| 20260504213248 | 52 | 194 | 7.8 | 15.6 | 0.00 | 0.16 | 0.08 | 1014.6 | |
| 20260504212748 | 52 | 204 | 10.4 | 14.8 | 0.00 | 0.16 | 0.08 | 1014.6 | |
| 20260504212249 | 52 | 179 | 8.7 | 13.9 | 0.00 | 0.16 | 0.08 | 1014.6 | |
| 20260504211749 | 52 | 184 | 7.0 | 16.5 | 0.00 | 0.16 | 0.08 | 1014.7 | |
| 20260504211248 | 52 | 208 | 0.0 | 16.5 | 0.00 | 0.16 | 0.08 | 1014.6 | |
| 20260504210748 | 52 | 210 | 8.7 | 16.5 | 0.00 | 0.16 | 0.08 | 1014.6 | |
| 20260504205748 | 52 | 176 | 11.3 | 15.6 | 0.00 | 0.16 | 0.08 | 1014.6 | |
| 20260504205249 | 52 | 180 | 9.6 | 15.6 | 0.00 | 0.16 | 0.08 | 1014.5 | |
| 20260504204748 | 52 | 194 | 7.8 | 15.6 | 0.00 | 0.16 | 0.08 | 1014.5 | |
| 20260504203748 | 52 | 208 | 8.7 | 16.5 | 0.00 | 0.16 | 0.08 | 1014.5 | |
| 20260504203249 | 52 | 214 | 8.7 | 16.5 | 0.00 | 0.16 | 0.08 | 1014.7 | |
| 20260504202748 | 52 | 201 | 7.0 | 15.6 | 0.00 | 0.16 | 0.08 | 1014.6 | |
| 20260504202250 | 52 | 198 | 7.0 | 15.6 | 0.00 | 0.16 | 0.08 | 1014.6 | |
| 20260504201748 | 52 | 204 | 7.8 | 14.8 | 0.00 | 0.16 | 0.08 | 1014.7 | |
| 20260504201248 | 51 | 187 | 7.0 | 13.9 | 0.00 | 0.16 | 0.08 | 1014.7 | |
| 20260504200748 | 52 | 187 | 7.0 | 13.9 | 0.00 | 0.16 | 0.08 | 1014.6 | |
| 20260504200248 | 51 | 204 | 7.8 | 15.6 | 0.00 | 0.16 | 0.08 | 1014.5 | |
| 20260504195748 | 51 | 168 | 7.0 | 15.6 | 0.00 | 0.16 | 0.08 | 1014.6 | |
| 20260504195249 | 51 | 208 | 7.8 | 15.6 | 0.00 | 0.16 | 0.08 | 1014.5 | |
| 20260504194748 | 51 | 231 | 8.7 | 15.6 | 0.00 | 0.16 | 0.08 | 1014.5 | |
| 20260504194248 | 51 | 190 | 7.8 | 15.6 | 0.00 | 0.16 | 0.08 | 1014.4 | |
| 20260504193748 | 51 | 203 | 7.0 | 14.8 | 0.00 | 0.16 | 0.08 | 1014.3 | |
| 20260504192748 | 51 | 183 | 5.2 | 12.2 | 0.00 | 0.16 | 0.08 | 1014.4 | |
| 20260504192249 | 52 | 212 | 7.0 | 12.2 | 0.00 | 0.16 | 0.08 | 1014.3 | |
| 20260504191248 | 51 | 191 | 5.2 | 13.9 | 0.00 | 0.16 | 0.08 | 1014.3 | |
| 20260504190748 | 51 | 176 | 6.1 | 13.9 | 0.00 | 0.16 | 0.08 | 1014.4 | |
| 20260504190248 | 51 | 226 | 7.8 | 12.2 | 0.00 | 0.16 | 0.08 | 1014.3 | |
| 20260504185748 | 52 | 201 | 6.1 | 13.0 | 0.00 | 0.16 | 0.08 | 1014.4 | |
| 20260504184748 | 51 | 208 | 5.2 | 13.0 | 0.00 | 0.16 | 0.08 | 1014.5 | |
| 20260504184248 | 52 | 197 | 6.1 | 10.4 | 0.00 | 0.16 | 0.08 | 1014.5 | |
| 20260504183249 | 51 | 191 | 2.6 | 13.9 | 0.00 | 0.16 | 0.08 | 1014.5 | |
| 20260504182748 | 51 | 145 | 4.3 | 13.9 | 0.00 | 0.16 | 0.08 | 1014.5 | |
| 20260504182248 | 51 | 215 | 6.1 | 13.9 | 0.00 | 0.16 | 0.08 | 1014.4 | |
| 20260504181748 | 51 | 218 | 7.0 | 12.2 | 0.00 | 0.16 | 0.08 | 1014.5 | |
| 20260504181248 | 51 | 211 | 7.0 | 11.3 | 0.00 | 0.16 | 0.08 | 1014.4 | |
| 20260504180748 | 51 | 214 | 5.2 | 11.3 | 0.00 | 0.16 | 0.08 | 1014.4 | |
| 20260504180248 | 51 | 193 | 5.2 | 11.3 | 0.00 | 0.16 | 0.08 | 1014.4 | |
| 20260504175248 | 51 | 175 | 6.1 | 13.9 | 0.00 | 0.16 | 0.08 | 1014.4 | |
| 20260504174248 | 51 | 208 | 3.5 | 13.0 | 0.00 | 0.16 | 0.08 | 1014.4 | |
| 20260504173748 | 51 | 184 | 5.2 | 13.0 | 0.00 | 0.16 | 0.08 | 1014.4 | |
| 20260504172748 | 51 | 163 | 5.2 | 11.3 | 0.00 | 0.16 | 0.08 | 1014.4 | |
| 20260504172248 | 52 | 217 | 0.0 | 11.3 | 0.00 | 0.16 | 0.08 | 1014.3 | |
| 20260504171248 | 52 | 190 | 2.6 | 9.6 | 0.00 | 0.16 | 0.08 | 1014.3 | |
| 20260504170747 | 51 | 204 | 3.5 | 12.2 | 0.00 | 0.16 | 0.08 | 1014.3 | |
| 20260504170248 | 51 | 172 | 4.3 | 12.2 | 0.00 | 0.16 | 0.08 | 1014.2 | |
| 20260504160247 | 51 | 201 | 0.9 | 13.0 | 0.00 | 0.16 | 0.08 | 1013.9 | |
| 20260504150747 | 50 | 207 | 2.6 | 13.0 | 0.02 | 0.14 | 0.08 | 1013.4 | |
| 20260504150247 | 50 | 210 | 3.5 | 13.0 | 0.02 | 0.14 | 0.08 | 1013.5 |